Flag for India Weather past 2 weeks in Sawai Madhopur, Rajasthan, India

Now
86 °F

Partly sunny.


Feels Like: 95 °F
Forecast: 78 / 90 °F
Wind: 5 mph from Northwest

Location: Jaipur / Sanganer

Current Time: Aug 2, 2015 at 6:17:31 PM

Latest Report: Aug 2, 2015 at 5:00 PM


Visibility: 2 mi

Pressure: 29.71 "Hg

Humidity: 70%

Dew point: 75 °F

Location of Sawai MadhopurLocation

Historic Weather in Sawai Madhopur — Graph

°F

Sawai Madhopur temperature yesterday

Maximum temperature yesterday: 81 °F (at 12:00 PM)
Minimum temperature yesterday: 75 °F (at 5:00 AM)
Average temperature yesterday: 78 °F

Past Weeks' High & Low Weather Summary

 TemperatureHumidityPressure
High95 °F (Jul 22, 4:00 PM)100% (Jul 18, 9:00 PM)29.77 "Hg (Jul 18, 9:00 PM)
Low73 °F (Jul 27, 2:00 AM)53% (Jul 22, 4:00 PM)29.42 "Hg (Jul 26, 4:00 PM)
Average82 °F84%29.59 "Hg
* Reported Jul 18 5:00 PM — Aug 2 5:00 PM, Sawai Madhopur, Weather by CustomWeather, © 2015

Note: Actual official high and low records may vary slightly from our data, if they occured in-between our weather recording intervals... More about our weather records

Advertising

Sawai Madhopur weather history for previous 24 hours

 ConditionsComfort  
Time TempWeatherWind HumidityBarometerVisibility
5:00 PM
Sun, Aug 2
86 °FPartly sunny.5 mph70%29.71 "Hg2 mi
4:00 PM86 °FPartly sunny.2 mph70%29.71 "Hg2 mi
2:00 PM84 °FFog.7 mph79%29.74 "Hg1 mi
1:00 PM81 °FRain. Partly sunny.7 mph89%29.77 "Hg1 mi
12:00 PM81 °FFog.8 mph84%29.77 "Hg1 mi
8:00 AM77 °FFog.6 mph94%29.74 "Hg1 mi
7:30 AM77 °FFog.3 mph94%29.74 "Hg1 mi
7:00 AM77 °FFog.5 mph94%29.74 "Hg1 mi
6:00 AM77 °FPassing clouds.1 mph94%29.74 "Hg1 mi
5:30 AM77 °FPassing clouds.2 mph94%29.74 "Hg1 mi
5:00 AM77 °FFog.5 mph94%29.71 "Hg1 mi
4:00 AM77 °FFog.6 mph94%29.71 "Hg1 mi
3:00 AM77 °FFog.6 mph94%29.71 "Hg1 mi
1:00 AM79 °FFog.5 mph89%29.74 "Hg1 mi
12:00 AM79 °FFog.2 mph89%29.74 "Hg1 mi
11:00 PM
Sat, Aug 1
79 °FFog.2 mph89%29.74 "Hg1 mi
10:00 PM79 °FFog.3 mph89%29.74 "Hg1 mi
9:00 PM79 °FFog.2 mph89%29.71 "Hg1 mi
8:00 PM79 °FFog.3 mph89%29.71 "Hg1 mi
7:00 PM79 °FFog.3 mph89%29.68 "Hg1 mi
6:00 PM81 °FFog.7 mph79%29.68 "Hg1 mi
Weather by CustomWeather, © 2015

See weather overviewHow to use our weather pages